Temperature
19 19 18 18 18 18 18 17 17 17 17 16 16 16 16 16 16 16 15 15 15 15 15 15 15 15 16 15 16 16 16 16 16 16 16 16 16 16 15 15 15 15 15
19 19 18 18 18 18 17 17 17 17 17 16 16 16 16 16 15 15 15 15 15 15 15 15 15 15 15 15 15 15 15 15 15 15 15 15 15 15 15 15 15 15 15
19 19 18 18 18 18 17 17 17 17 17 16 16 16 16 16 15 15 15 15 15 15 15 15 15 15 15 15 15 15 15 15 15 15 15 15 15 15 15 15 15 15 15
19 19 18 18 18 17 17 17 17 17 17 16 16 16 16 15 15 15 15 15 15 15 15 15 15 15 15 15 15 15 15 15 15 15 15 15 15 15 15 14 14 14 14
19 19 18 18 18 17 17 17 17 17 16 16 16 16 15 15 15 15 15 15 15 15 15 14 14 14 14 14 14 14 14 14 15 14 14 14 14 14 14 14 14 14 14
19 19 18 18 18 17 17 17 17 16 16 16 16 15 15 15 15 15 15 15 15 14 14 14 14 14 14 14 14 14 14 14 14 14 14 14 14 14 14 14 14 14 13
19 18 18 18 18 17 17 17 16 16 16 16 15 15 15 15 15 15 15 15 14 14 14 14 14 14 14 14 14 14 14 14 14 14 14 14 14 14 14 14 14 14 13
18 18 18 17 17 17 17 16 16 16 16 16 15 15 15 15 15 15 15 14 14 14 14 14 14 14 14 14 14 14 14 14 14 14 14 14 14 14 14 13 13 13 13
18 18 17 17 17 17 17 16 16 16 16 15 15 15 15 15 15 14 14 14 14 14 14 14 14 14 14 13 13 13 13 13 13 13 13 13 13 13 13 13 13 13 13
18 17 17 17 17 17 16 16 16 16 16 15 15 15 14 14 14 14 14 14 14 13 13 13 13 13 13 13 13 13 13 13 13 13 13 13 13 13 13 13 13 12 12
17 17 17 17 17 17 16 16 16 16 15 15 15 14 14 14 14 14 14 14 13 13 13 13 13 13 13 13 13 12 12 12 12 12 12 13 13 13 13 13 12 12 12
17 17 17 17 16 16 16 16 16 15 15 15 15 15 14 14 14 14 14 14 13 13 13 13 13 13 13 13 13 13 12 12 12 12 12 12 12 12 12 12 12 12 12
17 17 16 16 16 16 16 16 16 15 15 15 15 15 14 14 14 14 14 13 13 13 13 13 12 12 12 12 12 12 12 12 12 12 12 12 12 12 12 12 12 12 12
16 16 16 16 16 16 16 16 15 15 15 15 15 14 14 14 14 14 13 13 13 12 12 12 12 12 12 12 12 12 12 12 12 12 12 12 12 12 12 11 11 11 11
16 16 16 16 16 16 15 15 15 15 15 15 15 14 14 14 13 13 13 13 12 12 12 12 12 12 12 12 12 12 12 12 12 12 12 12 12 11 11 11 11 11 11
16 16 16 16 16 15 15 15 15 15 15 15 14 14 14 14 13 13 13 13 12 12 12 12 12 12 12 12 12 12 12 12 11 11 11 11 11 11 11 11 11 11 11
15 15 16 15 15 15 15 15 15 15 15 14 14 14 14 13 13 13 13 13 12 12 12 12 11 11 11 11 12 11 11 11 11 11 11 11 11 11 11 11 11 11 11
15 15 15 15 15 15 15 15 15 15 15 14 14 14 14 13 13 13 12 12 12 12 12 11 11 11 11 11 11 11 11 11 11 11 11 11 11 11 11 11 11 10 10
15 15 15 15 15 15 15 15 15 15 14 14 14 14 13 13 13 13 12 12 12 11 11 11 11 11 11 11 11 11 11 11 11 11 11 11 11 11 10 10 10 10 10
15 15 15 15 15 15 15 15 15 15 14 14 14 14 13 13 12 12 12 12 11 11 11 10 10 10 10 10 10 10 10 10 10 10 10 10 10 10 10 10 10 10 10
15 15 15 15 15 15 14 14 14 14 14 13 13 13 13 13 12 12 12 12 11 11 10 10 10 10 10 10 10 10 10 10 9 10 10 10 10 10 10 10 10 10 10
14 15 15 14 14 14 14 14 14 14 13 13 13 13 13 12 12 12 12 11 11 11 10 10 10 10 10 9 9 9 9 9 9 9 9 9 9 9 9 10 9 9 9
14 14 14 14 14 14 14 13 13 13 13 13 13 12 12 12 12 11 11 11 11 10 10 10 10 9 9 9 9 9 9 9 9 9 9 9 9 9 9 9 9 9 9
14 14 14 14 14 13 13 13 13 13 13 13 12 12 12 12 11 11 11 10 10 10 10 10 9 9 9 9 9 8 9 8 8 9 8 8 8 8 8 8 8 8 8
14 14 14 14 13 13 13 13 13 13 13 12 12 12 12 11 11 11 10 10 10 10 9 9 9 9 9 8 8 8 8 8 8 8 8 8 8 8 8 8 8 8 8
14 14 13 13 13 13 13 13 12 12 12 12 12 11 11 11 10 10 10 10 9 9 9 9 8 8 8 8 8 8 8 8 8 8 8 8 8 8 8 8 8 8 7
Wind_Speed
6 5 4 4 3 3 2 1 0 1 1 1 1 1 1 1 1 1 2 2 2 3 3 2 2 3 3 3 3 2 2 2 2 1 0 0 1 1 3 4 7 8 9
6 5 5 4 3 3 2 1 1 1 0 0 1 1 1 1 1 1 2 2 2 3 2 2 2 2 2 3 3 3 2 1 1 1 1 1 0 1 3 3 3 5 6
7 6 5 4 3 2 2 2 1 1 0 0 0 1 2 2 2 1 2 3 3 2 2 1 2 2 2 2 2 2 2 2 0 1 1 0 1 1 2 2 1 2 4
7 6 5 4 3 3 2 2 1 1 1 0 1 1 1 1 2 2 2 3 3 2 2 1 1 1 1 2 2 1 1 1 1 0 1 1 1 1 2 2 2 2 2
6 6 5 4 3 3 2 2 1 1 1 1 1 1 2 1 2 3 3 3 2 2 2 2 1 2 3 2 2 2 1 0 0 0 1 1 0 1 1 1 2 2 2
5 4 4 4 3 3 2 2 1 1 1 1 1 2 2 1 2 2 3 3 2 2 2 2 1 1 2 3 2 3 2 0 1 1 0 0 0 0 1 1 2 2 1
4 4 4 3 3 3 3 2 2 2 1 1 2 1 0 1 3 3 3 2 2 2 2 2 2 2 2 1 1 1 2 1 0 0 0 1 1 0 1 1 1 2 1
5 4 3 4 3 3 3 2 2 1 1 1 2 1 0 1 2 2 4 2 1 1 1 1 1 2 3 1 1 0 0 0 2 2 1 1 0 0 1 1 2 1 1
4 4 3 3 3 3 2 2 2 1 2 2 1 1 0 0 0 1 2 2 1 1 1 1 1 1 2 2 1 1 1 1 1 1 2 2 2 1 1 1 1 2 1
4 3 3 3 3 3 3 2 2 2 2 2 1 1 1 1 2 1 0 2 2 1 1 1 2 1 1 1 1 2 2 2 3 1 1 2 3 3 4 3 3 3 2
4 3 2 2 3 3 2 2 2 2 2 3 2 2 2 2 3 3 1 1 3 3 2 1 1 1 1 2 3 2 3 3 3 3 2 2 2 3 3 3 3 3 3
4 3 3 2 2 2 2 2 2 2 2 3 2 3 3 3 2 3 3 2 3 4 3 1 0 1 3 4 3 4 4 4 3 3 2 2 2 2 3 3 4 4 3
4 3 2 2 1 1 1 1 1 2 2 2 2 2 2 2 2 3 4 4 4 3 3 4 3 4 5 4 6 6 4 3 3 3 3 2 2 2 2 2 3 3 3
3 3 3 3 3 2 1 2 1 1 1 2 1 2 1 1 1 0 1 2 2 3 3 4 5 5 5 4 4 4 3 3 3 3 3 2 2 2 2 1 1 2 2
3 3 4 3 3 3 3 2 2 2 2 2 1 1 1 1 0 2 1 1 2 2 3 3 3 3 3 3 3 3 3 3 3 3 2 2 2 2 1 1 2 2 2
4 4 3 3 3 3 3 2 0 1 3 2 2 1 1 2 2 1 1 2 3 3 2 3 3 3 2 2 2 2 2 2 3 3 2 2 2 2 2 2 2 2 3
4 3 3 3 3 3 3 3 3 3 2 4 4 4 3 3 2 2 2 2 4 3 3 3 3 2 2 2 2 2 2 2 2 2 2 3 3 2 2 2 2 2 3
4 3 3 3 3 3 3 3 3 3 3 3 5 7 7 6 5 5 3 2 3 2 3 2 3 2 2 2 2 2 2 2 2 2 2 2 2 2 2 2 2 2 2
3 2 2 3 3 3 3 3 3 2 2 2 2 3 5 5 5 5 4 3 4 2 1 2 2 2 2 2 2 2 2 2 2 2 2 3 2 2 2 2 2 3 3
3 4 3 4 5 4 3 3 2 2 2 1 1 1 2 2 2 2 3 3 3 2 1 2 2 2 2 2 2 2 2 2 2 2 3 2 2 2 2 2 2 2 2
3 3 4 4 3 3 2 2 2 2 2 2 1 2 3 3 3 3 2 3 3 2 2 2 2 1 1 2 2 3 3 3 3 3 3 3 3 3 2 2 2 2 2
3 3 3 3 3 2 2 3 3 3 2 2 1 2 4 3 2 2 2 2 2 2 2 2 2 1 1 2 2 2 3 3 3 3 3 4 4 4 3 2 2 2 2
4 3 3 2 2 1 3 4 3 2 2 2 1 0 1 1 1 1 1 1 1 1 1 1 1 2 2 2 2 2 3 4 4 4 4 4 4 4 3 3 3 3 3
4 4 3 2 2 2 3 3 2 2 2 2 0 0 1 1 1 1 1 1 1 1 1 1 1 2 3 3 3 4 5 5 5 4 5 5 5 4 3 2 3 3 2
4 3 3 2 2 2 2 2 2 2 1 1 1 1 1 1 1 1 1 2 1 1 2 1 2 2 3 4 5 5 6 7 6 6 5 4 5 4 3 3 3 3 3
3 2 2 1 1 1 1 1 2 2 2 2 2 1 1 1 1 1 1 1 1 1 2 2 3 3 3 3 4 4 5 6 7 8 6 4 4 4 4 3 4 3 4
Wind_Direction
156 162 151 160 167 171 177 196 167 341 12 14 314 321 311 302 284 283 289 296 299 300 299 300 302 307 322 318 305 288 268 260 245 256 278 73 129 109 137 169 168 169 177
158 156 154 155 164 177 181 188 171 196 243 192 290 321 319 323 315 308 302 310 305 303 307 316 312 301 294 301 315 313 312 288 224 238 269 324 50 158 154 173 171 175 164
161 158 156 160 165 170 169 158 158 171 207 287 304 309 320 326 332 321 307 307 305 311 314 318 319 327 318 308 303 313 313 307 281 170 261 320 231 189 135 141 134 132 166
153 154 153 164 169 166 172 160 165 178 185 234 292 282 295 318 344 331 318 311 310 316 320 315 325 339 321 316 301 306 320 348 356 123 208 209 217 175 152 154 158 168 174
145 156 156 166 167 159 169 165 182 220 213 193 242 277 277 261 345 342 317 312 321 325 327 336 4 48 52 29 344 3 358 359 313 229 204 166 178 118 184 182 155 156 170
139 150 150 157 165 172 171 168 201 230 263 251 248 268 297 321 352 355 332 320 333 330 336 340 353 77 72 65 45 40 50 17 340 348 349 271 259 174 154 192 173 183 209
150 156 153 159 167 173 182 171 205 222 233 264 278 279 38 12 352 345 332 309 337 331 341 346 330 6 66 82 49 41 47 14 344 223 290 298 278 231 165 198 199 191 207
158 165 172 174 179 175 178 183 205 217 229 251 261 253 264 8 17 356 333 289 301 315 339 346 360 17 360 17 297 190 163 285 244 226 201 259 304 24 246 215 197 184 205
166 178 189 188 181 181 189 199 213 222 244 253 236 214 218 58 106 352 345 299 290 294 281 2 360 19 350 350 314 302 281 285 270 189 181 196 192 214 225 199 206 177 207
168 174 177 181 180 191 204 217 218 220 229 234 203 196 206 196 174 173 352 300 293 285 225 145 79 29 327 328 303 299 300 309 318 317 257 234 223 214 208 205 211 210 207
154 154 165 172 188 189 189 204 221 227 213 221 206 199 192 195 177 182 188 291 322 317 298 266 164 168 283 271 269 271 273 292 289 272 251 232 219 215 202 197 204 212 217
148 158 170 178 208 180 173 205 217 231 229 226 212 210 198 184 160 174 197 244 301 313 308 309 269 257 284 275 258 255 268 290 279 280 276 256 230 214 208 199 199 211 215
153 160 170 176 194 177 202 217 222 214 235 224 216 232 217 173 152 165 204 241 279 298 322 333 304 260 262 260 248 246 252 259 265 271 279 269 262 243 214 197 201 206 213
167 174 186 192 188 174 204 206 219 222 246 255 246 253 246 160 120 160 240 251 270 287 296 295 280 263 259 263 252 239 233 248 256 255 262 280 291 270 237 209 210 206 217
187 197 212 209 190 194 202 214 198 176 194 229 269 291 290 279 277 200 219 262 274 284 278 262 261 255 256 251 243 229 223 235 250 255 251 257 260 262 253 226 216 222 233
210 211 218 219 206 207 201 197 110 197 181 181 175 192 188 159 161 157 228 269 274 284 270 271 271 264 267 279 289 278 249 242 251 251 246 245 249 247 251 237 214 224 238
224 228 226 230 229 230 216 210 208 213 208 216 210 203 197 206 222 238 263 301 292 269 256 272 286 293 292 299 301 307 308 306 291 274 257 250 245 244 238 235 229 233 240
231 238 238 238 244 241 239 243 230 219 215 221 212 207 209 216 232 242 249 296 287 257 247 270 291 303 311 317 323 327 324 320 306 294 284 267 253 242 237 243 238 235 240
221 242 253 260 250 245 248 248 245 236 240 225 177 185 206 212 223 235 226 249 262 269 272 279 288 295 307 316 316 309 309 311 315 307 285 273 270 265 256 249 240 240 244
203 212 230 256 258 250 251 255 251 248 247 232 221 169 167 200 219 218 216 237 259 275 291 294 291 292 299 309 314 307 304 307 314 316 309 304 302 297 284 271 262 253 251
226 211 223 253 270 286 284 279 272 263 257 255 228 167 180 233 244 234 225 223 240 257 261 272 274 280 310 324 308 307 316 316 322 340 342 328 317 303 290 278 267 256 263
250 229 224 239 255 266 285 285 269 263 259 258 235 189 195 231 252 243 233 224 233 244 257 273 276 297 320 321 318 317 320 327 331 337 335 314 301 294 284 275 278 276 264
256 246 226 220 232 234 256 263 259 257 265 270 275 259 186 238 270 258 268 276 247 256 270 285 311 334 356 358 359 10 3 354 341 332 318 305 298 293 295 293 291 293 288
246 247 241 214 214 257 274 275 273 269 270 269 249 280 226 252 302 320 334 341 307 300 340 347 360 5 9 10 16 36 30 5 345 332 319 300 296 295 293 292 290 294 298
251 252 252 221 208 247 284 299 303 310 313 305 278 268 284 296 315 326 358 21 13 20 12 8 10 18 20 28 34 30 20 13 5 344 319 308 305 301 298 294 292 293 290
263 264 262 255 252 275 301 311 317 331 335 329 315 310 329 333 341 4 20 22 9 24 25 13 11 30 41 41 47 43 29 11 359 346 327 308 302 310 316 306 296 283 280
Height
1516 1517 1518 1519 1519 1520 1520 1520 1520 1520 1520 1519 1519 1518 1518 1517 1517 1516 1515 1515 1514 1513 1512 1512 1511 1511 1511 1511 1511 1512 1512 1512 1512 1513 1513 1514 1514 1514 1514 1514 1515 1516 1516
1515 1516 1517 1518 1518 1519 1519 1519 1519 1519 1518 1518 1517 1517 1516 1516 1515 1515 1514 1513 1512 1511 1511 1510 1510 1510 1509 1509 1509 1509 1510 1510 1510 1510 1510 1511 1511 1511 1512 1512 1513 1514 1514
1514 1515 1516 1517 1517 1518 1518 1518 1518 1517 1517 1517 1516 1515 1515 1514 1514 1513 1513 1512 1511 1510 1509 1508 1508 1507 1507 1507 1507 1507 1508 1508 1508 1508 1508 1508 1509 1509 1510 1510 1511 1511 1512
1513 1514 1514 1515 1516 1516 1517 1517 1516 1516 1516 1515 1515 1514 1514 1513 1512 1512 1511 1510 1509 1508 1508 1507 1506 1506 1505 1505 1505 1505 1506 1506 1506 1506 1506 1507 1507 1508 1508 1508 1508 1509 1509
1511 1512 1513 1514 1514 1515 1515 1515 1515 1515 1515 1514 1514 1513 1512 1512 1511 1510 1510 1509 1508 1507 1506 1506 1505 1505 1504 1503 1503 1503 1504 1504 1504 1504 1505 1505 1505 1505 1506 1506 1506 1507 1508
1510 1511 1512 1512 1513 1513 1514 1514 1514 1513 1513 1513 1512 1512 1511 1511 1510 1509 1508 1508 1507 1506 1505 1505 1504 1503 1502 1502 1502 1502 1502 1502 1502 1503 1503 1503 1503 1503 1504 1504 1505 1505 1505
1508 1510 1510 1511 1511 1512 1512 1512 1512 1512 1511 1511 1511 1511 1510 1509 1509 1508 1507 1506 1505 1504 1503 1503 1503 1502 1501 1501 1500 1500 1500 1500 1501 1501 1500 1501 1501 1501 1502 1502 1502 1503 1503
1506 1507 1508 1509 1510 1510 1510 1510 1510 1510 1510 1509 1509 1508 1508 1507 1507 1506 1506 1505 1504 1503 1502 1502 1501 1500 1500 1499 1499 1498 1498 1498 1498 1498 1499 1499 1499 1499 1499 1500 1500 1500 1501
1505 1506 1506 1507 1508 1508 1508 1508 1508 1508 1508 1508 1507 1507 1506 1505 1505 1505 1504 1503 1503 1502 1501 1500 1499 1499 1498 1498 1497 1497 1497 1497 1497 1496 1496 1496 1496 1497 1497 1497 1498 1498 1498
1503 1503 1504 1505 1505 1506 1506 1506 1506 1506 1506 1506 1506 1505 1505 1504 1503 1503 1502 1501 1501 1500 1500 1498 1498 1497 1497 1496 1496 1495 1495 1495 1495 1494 1494 1494 1494 1494 1494 1494 1495 1495 1495
1501 1502 1503 1503 1504 1504 1504 1504 1504 1504 1504 1504 1503 1503 1503 1502 1501 1501 1501 1500 1499 1498 1498 1497 1497 1496 1496 1495 1495 1494 1494 1494 1493 1492 1492 1491 1491 1491 1491 1492 1492 1493 1493
1500 1500 1501 1501 1502 1503 1502 1502 1502 1502 1502 1502 1501 1501 1500 1500 1499 1499 1498 1498 1497 1497 1496 1495 1495 1494 1494 1493 1493 1492 1492 1491 1491 1490 1490 1490 1489 1489 1489 1489 1489 1490 1490
1498 1499 1499 1500 1500 1500 1500 1500 1501 1500 1500 1500 1500 1499 1499 1498 1498 1497 1496 1496 1495 1494 1493 1493 1493 1492 1491 1491 1490 1490 1489 1489 1489 1488 1488 1488 1488 1487 1487 1487 1487 1487 1487
1496 1497 1497 1498 1498 1498 1499 1499 1499 1499 1499 1498 1498 1497 1497 1496 1496 1495 1493 1493 1492 1492 1491 1490 1490 1490 1489 1489 1488 1487 1487 1487 1486 1486 1486 1485 1485 1485 1485 1485 1484 1484 1484
1495 1496 1496 1496 1496 1496 1497 1497 1496 1496 1496 1496 1496 1495 1495 1494 1493 1493 1491 1490 1490 1489 1489 1488 1488 1487 1486 1486 1485 1485 1485 1484 1484 1484 1483 1483 1483 1482 1482 1482 1482 1482 1482
1493 1494 1494 1495 1495 1494 1494 1495 1494 1494 1494 1494 1494 1494 1492 1492 1491 1490 1490 1489 1488 1487 1487 1486 1486 1485 1485 1484 1483 1483 1483 1482 1482 1481 1481 1480 1480 1479 1479 1479 1479 1479 1479
1491 1492 1492 1493 1493 1493 1492 1492 1492 1492 1491 1491 1491 1491 1490 1489 1489 1488 1488 1487 1486 1485 1485 1484 1484 1483 1483 1482 1482 1481 1480 1480 1479 1479 1478 1478 1477 1477 1476 1476 1476 1476 1477
1489 1490 1490 1490 1490 1490 1490 1490 1489 1489 1488 1488 1488 1488 1488 1487 1486 1486 1485 1484 1484 1483 1482 1482 1481 1481 1480 1480 1479 1479 1478 1477 1477 1476 1476 1475 1475 1474 1474 1474 1474 1474 1474
1487 1488 1488 1488 1488 1488 1488 1487 1487 1486 1486 1486 1486 1485 1485 1484 1483 1483 1482 1482 1481 1481 1480 1480 1479 1479 1478 1478 1477 1476 1475 1475 1474 1473 1473 1472 1472 1471 1471 1471 1471 1471 1471
1483 1484 1485 1485 1485 1485 1485 1485 1484 1484 1484 1483 1483 1482 1481 1481 1480 1480 1479 1479 1479 1478 1478 1477 1477 1476 1476 1475 1474 1474 1473 1472 1471 1471 1470 1470 1469 1469 1468 1468 1468 1468 1468
1481 1481 1482 1482 1482 1482 1482 1482 1482 1482 1482 1481 1480 1479 1479 1478 1478 1478 1477 1476 1476 1476 1475 1475 1474 1474 1473 1472 1471 1471 1470 1469 1468 1468 1467 1466 1466 1465 1465 1465 1465 1465 1465
1479 1479 1479 1479 1479 1479 1479 1479 1479 1479 1479 1479 1478 1477 1476 1476 1476 1475 1475 1474 1474 1473 1473 1473 1472 1472 1471 1470 1469 1468 1468 1466 1466 1465 1464 1463 1462 1462 1462 1462 1462 1461 1461
1476 1476 1476 1476 1476 1476 1475 1476 1476 1476 1476 1476 1475 1475 1474 1474 1473 1473 1472 1472 1471 1471 1470 1470 1470 1470 1469 1468 1467 1466 1465 1464 1463 1462 1461 1461 1460 1459 1459 1458 1458 1458 1458
1473 1474 1474 1473 1473 1474 1473 1472 1473 1474 1474 1473 1473 1472 1472 1472 1471 1471 1470 1469 1469 1468 1468 1468 1467 1467 1466 1465 1464 1463 1462 1461 1460 1459 1458 1457 1457 1456 1455 1455 1455 1454 1454
1471 1471 1471 1471 1471 1471 1471 1471 1471 1471 1471 1471 1470 1470 1470 1469 1469 1468 1467 1467 1466 1466 1465 1465 1465 1464 1463 1462 1461 1460 1459 1458 1457 1456 1455 1454 1453 1452 1452 1452 1451 1451 1451
1468 1468 1468 1468 1468 1469 1469 1469 1469 1469 1469 1469 1468 1468 1467 1467 1466 1466 1465 1464 1464 1463 1463 1462 1462 1461 1460 1459 1458 1457 1456 1455 1454 1453 1451 1450 1450 1449 1449 1448 1448 1448 1447